Flag for U.S.A. Weather past 2 weeks in Santa Barbara, California, U.S.A.

Now
72 °F

Clear.


Feels Like: 75 °F
Forecast: 63 / 82 °F
Wind: 3 mph from East

Location: Santa Barbara Municipal Airport

Current Time: Jul 24, 2014 at 12:00:24 AM

Latest Report: Jul 23, 2014 at 10:53 PM


Visibility: 10 mi

Pressure: 29.87 "Hg

Humidity: 68%

Dew point: 61 °F

Location of Santa BarbaraLocation

Historic Weather in Santa Barbara — Graph

°F

Santa Barbara temperature yesterday

Maximum temperature yesterday: 88 °F (at 5:53 PM)
Minimum temperature yesterday: 57 °F (at 5:53 AM)
Average temperature yesterday: 73 °F

Past Weeks' High & Low Weather Summary

 TemperatureHumidityPressure
High88 °F (Jul 23, 5:53 PM)94% (Jul 16, 1:53 AM)30.07 "Hg (Jul 16, 1:53 AM)
Low57 °F (Jul 23, 5:53 AM)38% (Jul 23, 5:53 PM)29.82 "Hg (Jul 13, 7:53 PM)
Average69 °F73%29.97 "Hg
* Reported Jul 8 10:53 PM — Jul 23 10:53 PM, Santa Barbara, Weather by CustomWeather, © 2014

Note: Actual official high and low records may vary slightly from our data, if they occured in-between our weather recording intervals... More about our weather records

Advertising

Santa Barbara weather history for previous 24 hours

 ConditionsComfort  
Time TempWeatherWind HumidityBarometerVisibility
10:53 PM
Jul 23
72 °FClear.3 mph68%29.87 "Hg10 mi
9:53 PM73 °FClear.8 mph71%29.86 "Hg10 mi
8:53 PM73 °FSunny.8 mph71%29.85 "Hg10 mi
7:53 PM77 °FSunny.10 mph60%29.84 "Hg10 mi
6:53 PM86 °FSunny.5 mph42%29.84 "Hg10 mi
5:53 PM88 °FSunny.10 mph38%29.84 "Hg10 mi
4:53 PM87 °FSunny.9 mph43%29.86 "Hg10 mi
3:53 PM81 °FSunny.6 mph53%29.89 "Hg10 mi
2:53 PM81 °FSunny.8 mph51%29.92 "Hg10 mi
1:53 PM81 °FSunny.10 mph47%29.94 "Hg10 mi
12:53 PM77 °FSunny.8 mph56%29.97 "Hg10 mi
11:53 AM79 °FSunny.7 mph47%29.99 "Hg10 mi
10:53 AM73 °FSunny.8 mph69%30.00 "Hg10 mi
9:53 AM79 °FSunny.6 mph48%29.99 "Hg10 mi
8:53 AM73 °FSunny.No wind64%30.01 "Hg10 mi
7:53 AM71 °FSunny.No wind63%29.99 "Hg10 mi
6:53 AM60 °FClear.3 mph83%29.99 "Hg10 mi
5:53 AM57 °FClear.No wind87%29.98 "Hg10 mi
4:53 AM62 °FClear.No wind78%29.97 "Hg10 mi
3:53 AM60 °FClear.No wind80%29.96 "Hg10 mi
2:53 AM62 °FClear.No wind80%29.97 "Hg10 mi
1:53 AM62 °FClear.No wind78%29.98 "Hg10 mi
12:53 AM65 °FClear.No wind73%29.99 "Hg10 mi
Weather by CustomWeather, © 2014

See weather overviewHow to use our weather pages